Overview Statistics Trail Chart Weather Telemetry Raw packets
 

This is the latest recevied weather packets stored in our database for station/object KC4JIR. If no packets are shown the sender has not sent any weather packets the latest 10 day(s).

<< 90 91 92 93 94 95 96 >>
Time Temp. Humidity Pressure Rain* Wind** Luminosity Snow
1787832695 23.89° C 99% 1013.2 hPa 0 mm - 31 W/m² -
1787832394 23.33° C 99% 1013.1 hPa 0 mm - 22 W/m² -
1787832088 23.33° C 99% 1012.9 hPa 0 mm - 22 W/m² -
1787831781 23.33° C 99% 1012.8 hPa 0 mm - 22 W/m² -
1787831481 23.33° C 99% 1013 hPa 0 mm - 18 W/m² -
1787831179 23.33° C 99% 1012.9 hPa 0 mm - 7 W/m² -
1787830876 23.33° C 99% 1012.9 hPa 0 mm - 7 W/m² -
1787830576 23.33° C 99% 1012.9 hPa 0 mm - 9 W/m² -
1787830274 23.33° C 99% 1012.7 hPa 0 mm - 5 W/m² -
1787829969 23.33° C 99% 1012.8 hPa 0 mm - 3 W/m² -
1787829669 23.33° C 99% 1012.5 hPa 0 mm - 0 W/m² -
1787829364 23.33° C 99% 1012.6 hPa 0 mm - 0 W/m² -
1787829060 23.33° C 99% 1012.5 hPa 0 mm - 0 W/m² -
1787828755 23.33° C 99% 1012.5 hPa 0 mm - 0 W/m² -
1787828451 23.33° C 99% 1012.4 hPa 0 mm - 0 W/m² -
1787828149 23.33° C 99% 1012.7 hPa 0 mm - 0 W/m² -
1787827844 23.33° C 99% 1012.5 hPa 0 mm - 0 W/m² -
1787827539 23.33° C 99% 1012.8 hPa 0 mm - 0 W/m² -
1787827242 23.33° C 99% 1012.8 hPa 0 mm - 0 W/m² -
1787826938 23.33° C 99% 1012.9 hPa 0 mm - 0 W/m² -
1787826633 23.33° C 99% 1012.9 hPa 0 mm - 0 W/m² -
1787826329 23.33° C 99% 1012.7 hPa 0 mm - 0 W/m² -
1787826025 23.33° C 99% 1012.6 hPa 0 mm - 0 W/m² -
1787825723 23.33° C 99% 1012.6 hPa 0 mm - 0 W/m² -
1787825422 23.33° C 99% 1012.9 hPa 0 mm - 0 W/m² -

* Rain latest hour (hover to see other rain measurements)
** Current wind speed in m/s (hover to see current wind gust speed)